Year,Month,Day,Hour,Minute,Value (Times are PST for temperature in C)
2009,06,30,00,00,11.40
2009,06,30,00,01,11.40
2009,06,30,00,02,11.40
2009,06,30,00,03,11.40
2009,06,30,00,04,11.40
2009,06,30,00,05,11.40
2009,06,30,00,06,11.40
2009,06,30,00,07,11.40
2009,06,30,00,08,11.40
2009,06,30,00,09,11.40
2009,06,30,00,10,11.40
2009,06,30,00,11,11.40
2009,06,30,00,12,11.40
2009,06,30,00,13,11.30
2009,06,30,00,14,11.30
2009,06,30,00,15,11.30
2009,06,30,00,16,11.30
2009,06,30,00,17,11.30
2009,06,30,00,18,11.30
2009,06,30,00,19,11.30
2009,06,30,00,20,11.30
2009,06,30,00,21,11.20
2009,06,30,00,22,11.20
2009,06,30,00,23,11.20
2009,06,30,00,24,11.20
2009,06,30,00,25,11.20
2009,06,30,00,26,11.10
2009,06,30,00,27,11.10
2009,06,30,00,28,11.10
2009,06,30,00,29,11.10
2009,06,30,00,30,11.00
2009,06,30,00,31,10.90
2009,06,30,00,32,10.90
2009,06,30,00,33,10.90
2009,06,30,00,34,10.90
2009,06,30,00,35,10.90
2009,06,30,00,36,10.90
2009,06,30,00,37,10.90
2009,06,30,00,38,10.90
2009,06,30,00,39,10.90
2009,06,30,00,40,10.90
2009,06,30,00,41,10.90
2009,06,30,00,42,10.90
2009,06,30,00,43,10.80
2009,06,30,00,44,10.80
2009,06,30,00,45,10.80
2009,06,30,00,46,10.80
2009,06,30,00,47,10.80
2009,06,30,00,48,10.80
2009,06,30,00,49,10.70
2009,06,30,00,50,10.70
2009,06,30,00,51,10.70
2009,06,30,00,52,10.70
2009,06,30,00,53,10.70
2009,06,30,00,54,10.70
2009,06,30,00,55,10.70
2009,06,30,00,56,10.70
2009,06,30,00,57,10.70
2009,06,30,00,58,10.70
2009,06,30,00,59,10.70
2009,06,30,01,00,10.70
2009,06,30,01,01,10.70
2009,06,30,01,02,10.70
2009,06,30,01,03,10.70
2009,06,30,01,04,10.70
2009,06,30,01,05,10.60
2009,06,30,01,06,10.60
2009,06,30,01,07,10.60
2009,06,30,01,08,10.60
2009,06,30,01,09,10.60
2009,06,30,01,10,10.60
2009,06,30,01,11,10.60
2009,06,30,01,12,10.60
2009,06,30,01,13,10.60
2009,06,30,01,14,10.60
2009,06,30,01,15,10.60
2009,06,30,01,16,10.40
2009,06,30,01,17,10.40
2009,06,30,01,18,10.40
2009,06,30,01,19,10.40
2009,06,30,01,20,10.40
2009,06,30,01,21,10.40
2009,06,30,01,22,10.40
2009,06,30,01,23,10.40
2009,06,30,01,24,10.40
2009,06,30,01,25,10.40
2009,06,30,01,26,10.40
2009,06,30,01,27,10.30
2009,06,30,01,28,10.30
2009,06,30,01,29,10.30
2009,06,30,01,30,10.30
2009,06,30,01,31,10.30
2009,06,30,01,32,10.30
2009,06,30,01,33,10.30
2009,06,30,01,34,10.30
2009,06,30,01,35,10.20
2009,06,30,01,36,10.20
2009,06,30,01,37,10.20
2009,06,30,01,38,10.20
2009,06,30,01,39,10.20
2009,06,30,01,40,10.20
2009,06,30,01,41,10.20
2009,06,30,01,42,10.20
2009,06,30,01,43,10.10
2009,06,30,01,44,10.10
2009,06,30,01,45,10.10
2009,06,30,01,46,10.10
2009,06,30,01,47,10.10
2009,06,30,01,48,10.10
2009,06,30,01,49,10.10
2009,06,30,01,50,10.10
2009,06,30,01,51,10.10
2009,06,30,01,52,10.10
2009,06,30,01,53,10.10
2009,06,30,01,54,10.00
2009,06,30,01,55,9.90
2009,06,30,01,56,9.90
2009,06,30,01,57,9.90
2009,06,30,01,58,9.90
2009,06,30,01,59,9.90
2009,06,30,02,00,9.90
2009,06,30,02,01,9.90
2009,06,30,02,02,9.90
2009,06,30,02,03,9.90
2009,06,30,02,04,9.90
2009,06,30,02,05,9.90
2009,06,30,02,06,9.90
2009,06,30,02,07,9.90
2009,06,30,02,08,9.90
2009,06,30,02,09,9.80
2009,06,30,02,10,9.80
2009,06,30,02,11,9.80
2009,06,30,02,12,9.80
2009,06,30,02,13,9.80
2009,06,30,02,14,9.80
2009,06,30,02,15,9.70
2009,06,30,02,16,9.70
2009,06,30,02,17,9.70
2009,06,30,02,18,9.70
2009,06,30,02,19,9.70
2009,06,30,02,20,9.70
2009,06,30,02,21,9.70
2009,06,30,02,22,9.70
2009,06,30,02,23,9.70
2009,06,30,02,24,9.70
2009,06,30,02,25,9.70
2009,06,30,02,26,9.70
2009,06,30,02,27,9.70
2009,06,30,02,28,9.70
2009,06,30,02,29,9.70
2009,06,30,02,30,9.70
2009,06,30,02,31,9.70
2009,06,30,02,32,9.70
2009,06,30,02,33,9.70
2009,06,30,02,34,9.70
2009,06,30,02,35,9.70
2009,06,30,02,36,9.60
2009,06,30,02,37,9.60
2009,06,30,02,38,9.60
2009,06,30,02,39,9.60
2009,06,30,02,40,9.60
2009,06,30,02,41,9.60
2009,06,30,02,42,9.60
2009,06,30,02,43,9.60
2009,06,30,02,44,9.50
2009,06,30,02,45,9.50
2009,06,30,02,46,9.50
2009,06,30,02,47,9.50
2009,06,30,02,48,9.50
2009,06,30,02,49,9.50
2009,06,30,02,50,9.50
2009,06,30,02,51,9.50
2009,06,30,02,52,9.50
2009,06,30,02,53,9.50
2009,06,30,02,54,9.50
2009,06,30,02,55,9.50
2009,06,30,02,56,9.50
2009,06,30,02,57,9.50
2009,06,30,02,58,9.40
2009,06,30,02,59,9.40
2009,06,30,03,00,9.40
2009,06,30,03,01,9.40
2009,06,30,03,02,9.40
2009,06,30,03,03,9.40
2009,06,30,03,04,9.40
2009,06,30,03,05,9.40
2009,06,30,03,06,9.40
2009,06,30,03,07,9.40
2009,06,30,03,08,9.40
2009,06,30,03,09,9.40
2009,06,30,03,10,9.40
2009,06,30,03,11,9.40
2009,06,30,03,12,9.40
2009,06,30,03,13,9.40
2009,06,30,03,14,9.40
2009,06,30,03,15,9.40
2009,06,30,03,16,9.30
2009,06,30,03,17,9.30
2009,06,30,03,18,9.30
2009,06,30,03,19,9.30
2009,06,30,03,20,9.30
2009,06,30,03,21,9.30
2009,06,30,03,22,9.30
2009,06,30,03,23,9.30
2009,06,30,03,24,9.20
2009,06,30,03,25,9.20
2009,06,30,03,26,9.20
2009,06,30,03,27,9.20
2009,06,30,03,28,9.20
2009,06,30,03,29,9.20
2009,06,30,03,30,9.20
2009,06,30,03,31,9.20
2009,06,30,03,32,9.20
2009,06,30,03,33,9.20
2009,06,30,03,34,9.20
2009,06,30,03,35,9.20
2009,06,30,03,36,9.20
2009,06,30,03,37,9.20
2009,06,30,03,38,9.20
2009,06,30,03,39,9.20
2009,06,30,03,40,9.20
2009,06,30,03,41,9.20
2009,06,30,03,42,9.20
2009,06,30,03,43,9.20
2009,06,30,03,44,9.20
2009,06,30,03,45,9.20
2009,06,30,03,46,9.20
2009,06,30,03,47,9.20
2009,06,30,03,48,9.20
2009,06,30,03,49,9.20
2009,06,30,03,50,9.20
2009,06,30,03,51,9.20
2009,06,30,03,52,9.10
2009,06,30,03,53,9.10
2009,06,30,03,54,9.10
2009,06,30,03,55,9.10
2009,06,30,03,56,9.10
2009,06,30,03,57,9.10
2009,06,30,03,58,9.10
2009,06,30,03,59,9.10
2009,06,30,04,00,9.00
2009,06,30,04,01,9.00
2009,06,30,04,02,9.00
2009,06,30,04,03,9.00
2009,06,30,04,04,9.00
2009,06,30,04,05,8.90
2009,06,30,04,06,8.90
2009,06,30,04,07,8.90
2009,06,30,04,08,8.90
2009,06,30,04,09,8.90
2009,06,30,04,10,8.90
2009,06,30,04,11,8.90
2009,06,30,04,12,8.90
2009,06,30,04,13,8.90
2009,06,30,04,14,8.90
2009,06,30,04,15,8.90
2009,06,30,04,16,8.80
2009,06,30,04,17,8.80
2009,06,30,04,18,8.80
2009,06,30,04,19,8.80
2009,06,30,04,20,8.80
2009,06,30,04,21,8.80
2009,06,30,04,22,8.80
2009,06,30,04,23,8.80
2009,06,30,04,24,8.70
2009,06,30,04,25,8.70
2009,06,30,04,26,8.70
2009,06,30,04,27,8.70
2009,06,30,04,28,8.70
2009,06,30,04,29,8.70
2009,06,30,04,30,8.70
2009,06,30,04,31,8.70
2009,06,30,04,32,8.70
2009,06,30,04,33,8.70
2009,06,30,04,34,8.70
2009,06,30,04,35,8.70
2009,06,30,04,36,8.70
2009,06,30,04,37,8.70
2009,06,30,04,38,8.70
2009,06,30,04,39,8.70
2009,06,30,04,40,8.70
2009,06,30,04,41,8.60
2009,06,30,04,42,8.60
2009,06,30,04,43,8.60
2009,06,30,04,44,8.60
2009,06,30,04,45,8.60
2009,06,30,04,46,8.60
2009,06,30,04,47,8.60
2009,06,30,04,48,8.60
2009,06,30,04,49,8.60
2009,06,30,04,50,8.60
2009,06,30,04,51,8.60
2009,06,30,04,52,8.60
2009,06,30,04,53,8.60
2009,06,30,04,54,8.60
2009,06,30,04,55,8.60
2009,06,30,04,56,8.60
2009,06,30,04,57,8.60
2009,06,30,04,58,8.60
2009,06,30,04,59,8.60
2009,06,30,05,00,8.60
2009,06,30,05,01,8.50
2009,06,30,05,02,8.50
2009,06,30,05,03,8.50
2009,06,30,05,04,8.50
2009,06,30,05,05,8.50
2009,06,30,05,06,8.50
2009,06,30,05,07,8.50
2009,06,30,05,08,8.50
2009,06,30,05,09,8.50
2009,06,30,05,10,8.50
2009,06,30,05,11,8.50
2009,06,30,05,12,8.50
2009,06,30,05,13,8.50
2009,06,30,05,14,8.50
2009,06,30,05,15,8.50
2009,06,30,05,16,8.50
2009,06,30,05,17,8.40
2009,06,30,05,18,8.40
2009,06,30,05,19,8.40
2009,06,30,05,20,8.40
2009,06,30,05,21,8.40
2009,06,30,05,22,8.40
2009,06,30,05,23,8.40
2009,06,30,05,24,8.40
2009,06,30,05,25,8.40
2009,06,30,05,26,8.40
2009,06,30,05,27,8.40
2009,06,30,05,28,8.40
2009,06,30,05,29,8.40
2009,06,30,05,30,8.40
2009,06,30,05,31,8.40
2009,06,30,05,32,8.40
2009,06,30,05,33,8.40
2009,06,30,05,34,8.30
2009,06,30,05,35,8.30
2009,06,30,05,36,8.30
2009,06,30,05,37,8.30
2009,06,30,05,38,8.30
2009,06,30,05,39,8.30
2009,06,30,05,40,8.30
2009,06,30,05,41,8.30
2009,06,30,05,42,8.30
2009,06,30,05,43,8.30
2009,06,30,05,44,8.40
2009,06,30,05,45,8.40
2009,06,30,05,46,8.40
2009,06,30,05,47,8.40
2009,06,30,05,48,8.40
2009,06,30,05,49,8.40
2009,06,30,05,50,8.50
2009,06,30,05,51,8.50
2009,06,30,05,52,8.50
2009,06,30,05,53,8.50
2009,06,30,05,54,8.60
2009,06,30,05,55,8.60
2009,06,30,05,56,8.70
2009,06,30,05,57,8.70
2009,06,30,05,58,8.70
2009,06,30,05,59,8.80
2009,06,30,06,00,8.80
2009,06,30,06,01,8.90
2009,06,30,06,02,9.00
2009,06,30,06,03,9.00
2009,06,30,06,04,9.00
2009,06,30,06,05,9.10
2009,06,30,06,06,9.10
2009,06,30,06,07,9.20
2009,06,30,06,08,9.20
2009,06,30,06,09,9.30
2009,06,30,06,10,9.30
2009,06,30,06,11,9.40
2009,06,30,06,12,9.50
2009,06,30,06,13,9.60
2009,06,30,06,14,9.70
2009,06,30,06,15,9.70
2009,06,30,06,16,9.80
2009,06,30,06,17,9.90
2009,06,30,06,18,9.90
2009,06,30,06,19,9.90
2009,06,30,06,20,10.00
2009,06,30,06,21,10.10
2009,06,30,06,22,10.10
2009,06,30,06,23,10.10
2009,06,30,06,24,10.10
2009,06,30,06,25,10.10
2009,06,30,06,26,10.20
2009,06,30,06,27,10.20
2009,06,30,06,28,10.20
2009,06,30,06,29,10.20
2009,06,30,06,30,10.30
2009,06,30,06,31,10.30
2009,06,30,06,32,10.30
2009,06,30,06,33,10.40
2009,06,30,06,34,10.40
2009,06,30,06,35,10.50
2009,06,30,06,36,10.60
2009,06,30,06,37,10.70
2009,06,30,06,38,10.90
2009,06,30,06,39,11.10
2009,06,30,06,40,11.30
2009,06,30,06,41,11.40
2009,06,30,06,42,11.40
2009,06,30,06,43,11.60
2009,06,30,06,44,11.70
2009,06,30,06,45,11.80
2009,06,30,06,46,11.90
2009,06,30,06,47,12.00
2009,06,30,06,48,12.00
2009,06,30,06,49,12.00
2009,06,30,06,50,12.10
2009,06,30,06,51,12.10
2009,06,30,06,52,12.20
2009,06,30,06,53,12.30
2009,06,30,06,54,12.30
2009,06,30,06,55,12.40
2009,06,30,06,56,12.40
2009,06,30,06,57,12.40
2009,06,30,06,58,12.40
2009,06,30,06,59,12.40
2009,06,30,07,00,12.40
2009,06,30,07,01,12.40
2009,06,30,07,02,12.50
2009,06,30,07,03,12.50
2009,06,30,07,04,12.50
2009,06,30,07,05,12.50
2009,06,30,07,06,12.50
2009,06,30,07,07,12.50
2009,06,30,07,08,12.50
2009,06,30,07,09,12.50
2009,06,30,07,10,12.60
2009,06,30,07,11,12.60
2009,06,30,07,12,12.80
2009,06,30,07,13,12.80
2009,06,30,07,14,12.90
2009,06,30,07,15,13.00
2009,06,30,07,16,13.10
2009,06,30,07,17,13.20
2009,06,30,07,18,13.30
2009,06,30,07,19,13.30
2009,06,30,07,20,13.30
2009,06,30,07,21,13.40
2009,06,30,07,22,13.50
2009,06,30,07,23,13.60
2009,06,30,07,24,13.70
2009,06,30,07,25,13.80
2009,06,30,07,26,13.90
2009,06,30,07,27,13.90
2009,06,30,07,28,13.90
2009,06,30,07,29,13.90
2009,06,30,07,30,14.00
2009,06,30,07,31,13.90
2009,06,30,07,32,14.00
2009,06,30,07,33,14.00
2009,06,30,07,34,14.10
2009,06,30,07,35,14.10
2009,06,30,07,36,14.20
2009,06,30,07,37,14.30
2009,06,30,07,38,14.30
2009,06,30,07,39,14.30
2009,06,30,07,40,14.30
2009,06,30,07,41,14.30
2009,06,30,07,42,14.40
2009,06,30,07,43,14.40
2009,06,30,07,44,14.40
2009,06,30,07,45,14.50
2009,06,30,07,46,14.50
2009,06,30,07,47,14.50
2009,06,30,07,48,14.50
2009,06,30,07,49,14.50
2009,06,30,07,50,14.40
2009,06,30,07,51,14.40
2009,06,30,07,52,14.40
2009,06,30,07,53,14.40
2009,06,30,07,54,14.50
2009,06,30,07,55,14.50
2009,06,30,07,56,14.60
2009,06,30,07,57,14.60
2009,06,30,07,58,14.50
2009,06,30,07,59,14.50
2009,06,30,08,00,14.50
2009,06,30,08,01,14.60
2009,06,30,08,02,14.60
2009,06,30,08,03,14.60
2009,06,30,08,04,14.60
2009,06,30,08,05,14.60
2009,06,30,08,06,14.60
2009,06,30,08,07,14.60
2009,06,30,08,08,14.60
2009,06,30,08,09,14.60
2009,06,30,08,10,14.70
2009,06,30,08,11,14.70
2009,06,30,08,12,14.80
2009,06,30,08,13,14.80
2009,06,30,08,14,14.80
2009,06,30,08,15,14.80
2009,06,30,08,16,14.80
2009,06,30,08,17,14.80
2009,06,30,08,18,14.80
2009,06,30,08,19,14.80
2009,06,30,08,20,14.80
2009,06,30,08,21,14.80
2009,06,30,08,22,14.80
2009,06,30,08,23,14.70
2009,06,30,08,24,14.70
2009,06,30,08,25,14.70
2009,06,30,08,26,14.70
2009,06,30,08,27,14.70
2009,06,30,08,28,14.70
2009,06,30,08,29,14.80
2009,06,30,08,30,14.80
2009,06,30,08,31,14.80
2009,06,30,08,32,14.80
2009,06,30,08,33,14.80
2009,06,30,08,34,14.90
2009,06,30,08,35,15.00
2009,06,30,08,36,15.00
2009,06,30,08,37,15.10
2009,06,30,08,38,15.10
2009,06,30,08,39,15.10
2009,06,30,08,40,15.20
2009,06,30,08,41,15.30
2009,06,30,08,42,15.30
2009,06,30,08,43,15.20
2009,06,30,08,44,15.20
2009,06,30,08,45,15.30
2009,06,30,08,46,15.20
2009,06,30,08,47,15.10
2009,06,30,08,48,15.00
2009,06,30,08,49,15.00
2009,06,30,08,50,15.10
2009,06,30,08,51,15.10
2009,06,30,08,52,15.10
2009,06,30,08,53,15.10
2009,06,30,08,54,15.10
2009,06,30,08,55,15.10
2009,06,30,08,56,15.20
2009,06,30,08,57,15.20
2009,06,30,08,58,15.20
2009,06,30,08,59,15.20
2009,06,30,09,00,15.30
2009,06,30,09,01,15.30
2009,06,30,09,02,15.30
2009,06,30,09,03,15.30
2009,06,30,09,04,15.30
2009,06,30,09,05,15.30
2009,06,30,09,06,15.30
2009,06,30,09,07,15.30
2009,06,30,09,08,15.30
2009,06,30,09,09,15.30
2009,06,30,09,10,15.30
2009,06,30,09,11,15.30
2009,06,30,09,12,15.40
2009,06,30,09,13,15.50
2009,06,30,09,14,15.40
2009,06,30,09,15,15.40
2009,06,30,09,16,15.40
2009,06,30,09,17,15.50
2009,06,30,09,18,15.50
2009,06,30,09,19,15.60
2009,06,30,09,20,15.50
2009,06,30,09,21,15.60
2009,06,30,09,22,15.60
2009,06,30,09,23,15.70
2009,06,30,09,24,15.80
2009,06,30,09,25,15.80
2009,06,30,09,26,15.80
2009,06,30,09,27,15.80
2009,06,30,09,28,15.80
2009,06,30,09,29,15.80
2009,06,30,09,30,15.90
2009,06,30,09,31,15.90
2009,06,30,09,32,15.80
2009,06,30,09,33,15.80
2009,06,30,09,34,15.70
2009,06,30,09,35,15.70
2009,06,30,09,36,15.80
2009,06,30,09,37,15.80
2009,06,30,09,38,16.00
2009,06,30,09,39,16.10
2009,06,30,09,40,16.10
2009,06,30,09,41,16.10
2009,06,30,09,42,16.10
2009,06,30,09,43,16.10
2009,06,30,09,44,16.20
2009,06,30,09,45,16.10
2009,06,30,09,46,16.10
2009,06,30,09,47,16.10
2009,06,30,09,48,16.10
2009,06,30,09,49,16.10
2009,06,30,09,50,16.10
2009,06,30,09,51,16.00
2009,06,30,09,52,15.90
2009,06,30,09,53,15.80
2009,06,30,09,54,15.80
2009,06,30,09,55,15.80
2009,06,30,09,56,15.90
2009,06,30,09,57,16.10
2009,06,30,09,58,16.10
2009,06,30,09,59,16.10
2009,06,30,10,00,15.90
2009,06,30,10,01,15.80
2009,06,30,10,02,15.90
2009,06,30,10,03,16.10
2009,06,30,10,04,16.10
2009,06,30,10,05,16.10
2009,06,30,10,06,16.10
2009,06,30,10,07,16.10
2009,06,30,10,08,16.10
2009,06,30,10,09,16.10
2009,06,30,10,10,15.90
2009,06,30,10,11,15.90
2009,06,30,10,12,15.80
2009,06,30,10,13,15.90
2009,06,30,10,14,15.90
2009,06,30,10,15,15.90
2009,06,30,10,16,16.00
2009,06,30,10,17,16.10
2009,06,30,10,18,16.30
2009,06,30,10,19,16.40
2009,06,30,10,20,16.40
2009,06,30,10,21,16.40
2009,06,30,10,22,16.30
2009,06,30,10,23,16.20
2009,06,30,10,24,16.20
2009,06,30,10,25,16.20
2009,06,30,10,26,16.20
2009,06,30,10,27,16.10
2009,06,30,10,28,16.10
2009,06,30,10,29,16.10
2009,06,30,10,30,16.20
2009,06,30,10,31,16.20
2009,06,30,10,32,16.20
2009,06,30,10,33,16.30
2009,06,30,10,34,16.50
2009,06,30,10,35,16.60
2009,06,30,10,36,16.60
2009,06,30,10,37,16.60
2009,06,30,10,38,16.60
2009,06,30,10,39,16.70
2009,06,30,10,40,16.70
2009,06,30,10,41,16.70
2009,06,30,10,42,16.80
2009,06,30,10,43,16.80
2009,06,30,10,44,16.90
2009,06,30,10,45,16.90
2009,06,30,10,46,16.80
2009,06,30,10,47,16.80
2009,06,30,10,48,16.90
2009,06,30,10,49,16.90
2009,06,30,10,50,17.00
2009,06,30,10,51,16.90
2009,06,30,10,52,16.90
2009,06,30,10,53,17.00
2009,06,30,10,54,17.00
2009,06,30,10,55,17.00
2009,06,30,10,56,17.00
2009,06,30,10,57,17.10
2009,06,30,10,58,17.10
2009,06,30,10,59,17.20
2009,06,30,11,00,17.20
2009,06,30,11,01,17.30
2009,06,30,11,02,17.20
2009,06,30,11,03,17.30
2009,06,30,11,04,17.50
2009,06,30,11,05,17.60
2009,06,30,11,06,17.60
2009,06,30,11,07,17.50
2009,06,30,11,08,17.40
2009,06,30,11,09,17.40
2009,06,30,11,10,17.30
2009,06,30,11,11,17.30
2009,06,30,11,12,17.20
2009,06,30,11,13,17.30
2009,06,30,11,14,17.30
2009,06,30,11,15,17.20
2009,06,30,11,16,17.20
2009,06,30,11,17,17.30
2009,06,30,11,18,17.20
2009,06,30,11,19,17.10
2009,06,30,11,20,17.00
2009,06,30,11,21,17.00
2009,06,30,11,22,16.90
2009,06,30,11,23,16.70
2009,06,30,11,24,16.90
2009,06,30,11,25,17.00
2009,06,30,11,26,17.00
2009,06,30,11,27,16.90
2009,06,30,11,28,16.90
2009,06,30,11,29,17.00
2009,06,30,11,30,17.00
2009,06,30,11,31,17.10
2009,06,30,11,32,17.10
2009,06,30,11,33,17.30
2009,06,30,11,34,17.30
2009,06,30,11,35,17.40
2009,06,30,11,36,17.40
2009,06,30,11,37,17.40
2009,06,30,11,38,17.40
2009,06,30,11,39,17.50
2009,06,30,11,40,17.60
2009,06,30,11,41,17.60
2009,06,30,11,42,17.50
2009,06,30,11,43,17.40
2009,06,30,11,44,17.40
2009,06,30,11,45,17.40
2009,06,30,11,46,17.50
2009,06,30,11,47,17.70
2009,06,30,11,48,17.80
2009,06,30,11,49,17.80
2009,06,30,11,50,17.90
2009,06,30,11,51,17.90
2009,06,30,11,52,17.90
2009,06,30,11,53,17.90
2009,06,30,11,54,17.90
2009,06,30,11,55,17.90
2009,06,30,11,56,17.80
2009,06,30,11,57,17.70
2009,06,30,11,58,17.60
2009,06,30,11,59,17.60
2009,06,30,12,00,17.60
2009,06,30,12,01,17.60
2009,06,30,12,02,17.60
2009,06,30,12,03,17.80
2009,06,30,12,04,17.70
2009,06,30,12,05,17.70
2009,06,30,12,06,17.60
2009,06,30,12,07,17.70
2009,06,30,12,08,17.70
2009,06,30,12,09,17.70
2009,06,30,12,10,17.70
2009,06,30,12,11,17.60
2009,06,30,12,12,17.60
2009,06,30,12,13,17.50
2009,06,30,12,14,17.40
2009,06,30,12,15,17.40
2009,06,30,12,16,17.40
2009,06,30,12,17,17.50
2009,06,30,12,18,17.50
2009,06,30,12,19,17.60
2009,06,30,12,20,17.70
2009,06,30,12,21,17.70
2009,06,30,12,22,17.70
2009,06,30,12,23,17.80
2009,06,30,12,24,17.80
2009,06,30,12,25,17.80
2009,06,30,12,26,17.80
2009,06,30,12,27,17.70
2009,06,30,12,28,17.60
2009,06,30,12,29,17.60
2009,06,30,12,30,17.50
2009,06,30,12,31,17.50
2009,06,30,12,32,17.50
2009,06,30,12,33,17.60
2009,06,30,12,34,17.70
2009,06,30,12,35,17.70
2009,06,30,12,36,17.60
2009,06,30,12,37,17.60
2009,06,30,12,38,17.70
2009,06,30,12,39,17.60
2009,06,30,12,40,17.50
2009,06,30,12,41,17.60
2009,06,30,12,42,17.60
2009,06,30,12,43,17.80
2009,06,30,12,44,17.90
2009,06,30,12,45,17.90
2009,06,30,12,46,17.90
2009,06,30,12,47,18.00
2009,06,30,12,48,18.20
2009,06,30,12,49,18.10
2009,06,30,12,50,17.90
2009,06,30,12,51,17.80
2009,06,30,12,52,17.70
2009,06,30,12,53,17.70
2009,06,30,12,54,17.70
2009,06,30,12,55,17.80
2009,06,30,12,56,17.80
2009,06,30,12,57,18.10
2009,06,30,12,58,18.10
2009,06,30,12,59,17.90
2009,06,30,13,00,17.90
2009,06,30,13,01,17.70
2009,06,30,13,02,17.70
2009,06,30,13,03,17.70
2009,06,30,13,04,17.80
2009,06,30,13,05,17.80
2009,06,30,13,06,17.90
2009,06,30,13,07,17.90
2009,06,30,13,08,18.10
2009,06,30,13,09,18.20
2009,06,30,13,10,18.20
2009,06,30,13,11,18.20
2009,06,30,13,12,18.20
2009,06,30,13,13,18.20
2009,06,30,13,14,18.20
2009,06,30,13,15,18.20
2009,06,30,13,16,18.10
2009,06,30,13,17,18.10
2009,06,30,13,18,18.00
2009,06,30,13,19,17.90
2009,06,30,13,20,18.00
2009,06,30,13,21,18.10
2009,06,30,13,22,18.30
2009,06,30,13,23,18.50
2009,06,30,13,24,18.60
2009,06,30,13,25,18.60
2009,06,30,13,26,18.50
2009,06,30,13,27,18.50
2009,06,30,13,28,18.50
2009,06,30,13,29,18.40
2009,06,30,13,30,18.40
2009,06,30,13,31,18.40
2009,06,30,13,32,18.30
2009,06,30,13,33,18.30
2009,06,30,13,34,18.30
2009,06,30,13,35,18.20
2009,06,30,13,36,18.10
2009,06,30,13,37,18.10
2009,06,30,13,38,18.20
2009,06,30,13,39,18.20
2009,06,30,13,40,18.20
2009,06,30,13,41,18.20
2009,06,30,13,42,18.40
2009,06,30,13,43,18.40
2009,06,30,13,44,18.50
2009,06,30,13,45,18.50
2009,06,30,13,46,18.60
2009,06,30,13,47,18.60
2009,06,30,13,48,18.50
2009,06,30,13,49,18.60
2009,06,30,13,50,18.60
2009,06,30,13,51,18.60
2009,06,30,13,52,18.50
2009,06,30,13,53,18.40
2009,06,30,13,54,18.30
2009,06,30,13,55,18.30
2009,06,30,13,56,18.40
2009,06,30,13,57,18.60
2009,06,30,13,58,18.70
2009,06,30,13,59,18.80
2009,06,30,14,00,18.80
2009,06,30,14,01,18.70
2009,06,30,14,02,18.60
2009,06,30,14,03,18.50
2009,06,30,14,04,18.50
2009,06,30,14,05,18.60
2009,06,30,14,06,18.60
2009,06,30,14,07,18.50
2009,06,30,14,08,18.50
2009,06,30,14,09,18.50
2009,06,30,14,10,18.60
2009,06,30,14,11,18.70
2009,06,30,14,12,18.80
2009,06,30,14,13,18.90
2009,06,30,14,14,18.90
2009,06,30,14,15,18.90
2009,06,30,14,16,19.00
2009,06,30,14,17,19.10
2009,06,30,14,18,19.20
2009,06,30,14,19,19.20
2009,06,30,14,20,19.30
2009,06,30,14,21,19.30
2009,06,30,14,22,19.30
2009,06,30,14,23,19.30
2009,06,30,14,24,19.40
2009,06,30,14,25,19.50
2009,06,30,14,26,19.40
2009,06,30,14,27,19.30
2009,06,30,14,28,19.10
2009,06,30,14,29,19.20
2009,06,30,14,30,19.20
2009,06,30,14,31,19.30
2009,06,30,14,32,19.40
2009,06,30,14,33,19.40
2009,06,30,14,34,19.50
2009,06,30,14,35,19.50
2009,06,30,14,36,19.60
2009,06,30,14,37,19.60
2009,06,30,14,38,19.60
2009,06,30,14,39,19.60
2009,06,30,14,40,19.60
2009,06,30,14,41,19.40
2009,06,30,14,42,19.30
2009,06,30,14,43,19.30
2009,06,30,14,44,19.30
2009,06,30,14,45,19.30
2009,06,30,14,46,19.40
2009,06,30,14,47,19.40
2009,06,30,14,48,19.50
2009,06,30,14,49,19.50
2009,06,30,14,50,19.40
2009,06,30,14,51,19.40
2009,06,30,14,52,19.30
2009,06,30,14,53,19.30
2009,06,30,14,54,19.40
2009,06,30,14,55,19.50
2009,06,30,14,56,19.40
2009,06,30,14,57,19.40
2009,06,30,14,58,19.60
2009,06,30,14,59,19.70
2009,06,30,15,00,19.70
2009,06,30,15,01,19.50
2009,06,30,15,02,19.40
2009,06,30,15,03,19.30
2009,06,30,15,04,19.30
2009,06,30,15,05,19.40
2009,06,30,15,06,19.30
2009,06,30,15,07,19.40
2009,06,30,15,08,19.30
2009,06,30,15,09,19.40
2009,06,30,15,10,19.60
2009,06,30,15,11,19.60
2009,06,30,15,12,19.70
2009,06,30,15,13,19.60
2009,06,30,15,14,19.60
2009,06,30,15,15,19.60
2009,06,30,15,16,19.60
2009,06,30,15,17,19.50
2009,06,30,15,18,19.50
2009,06,30,15,19,19.50
2009,06,30,15,20,19.40
2009,06,30,15,21,19.30
2009,06,30,15,22,19.30
2009,06,30,15,23,19.30
2009,06,30,15,24,19.30
2009,06,30,15,25,19.40
2009,06,30,15,26,19.50
2009,06,30,15,27,19.60
2009,06,30,15,28,19.70
2009,06,30,15,29,19.70
2009,06,30,15,30,19.80
2009,06,30,15,31,19.90
2009,06,30,15,32,19.90
2009,06,30,15,33,19.90
2009,06,30,15,34,19.90
2009,06,30,15,35,19.70
2009,06,30,15,36,19.60
2009,06,30,15,37,19.50
2009,06,30,15,38,19.60
2009,06,30,15,39,19.60
2009,06,30,15,40,19.60
2009,06,30,15,41,19.60
2009,06,30,15,42,19.70
2009,06,30,15,43,19.60
2009,06,30,15,44,19.60
2009,06,30,15,45,19.70
2009,06,30,15,46,19.80
2009,06,30,15,47,19.90
2009,06,30,15,48,19.80
2009,06,30,15,49,19.80
2009,06,30,15,50,19.80
2009,06,30,15,51,19.90
2009,06,30,15,52,20.00
2009,06,30,15,53,20.00
2009,06,30,15,54,19.90
2009,06,30,15,55,19.90
2009,06,30,15,56,20.00
2009,06,30,15,57,20.10
2009,06,30,15,58,20.20
2009,06,30,15,59,20.10
2009,06,30,16,00,20.00
2009,06,30,16,01,19.90
2009,06,30,16,02,19.90
2009,06,30,16,03,19.90
2009,06,30,16,04,19.80
2009,06,30,16,05,19.90
2009,06,30,16,06,19.90
2009,06,30,16,07,19.90
2009,06,30,16,08,19.90
2009,06,30,16,09,19.90
2009,06,30,16,10,20.10
2009,06,30,16,11,20.10
2009,06,30,16,12,20.20
2009,06,30,16,13,20.30
2009,06,30,16,14,20.30
2009,06,30,16,15,20.30
2009,06,30,16,16,20.30
2009,06,30,16,17,20.40
2009,06,30,16,18,20.50
2009,06,30,16,19,20.50
2009,06,30,16,20,20.60
2009,06,30,16,21,20.70
2009,06,30,16,22,20.80
2009,06,30,16,23,20.80
2009,06,30,16,24,20.70
2009,06,30,16,25,20.60
2009,06,30,16,26,20.60
2009,06,30,16,27,20.60
2009,06,30,16,28,20.60
2009,06,30,16,29,20.50
2009,06,30,16,30,20.50
2009,06,30,16,31,20.60
2009,06,30,16,32,20.70
2009,06,30,16,33,20.80
2009,06,30,16,34,20.90
2009,06,30,16,35,21.00
2009,06,30,16,36,21.00
2009,06,30,16,37,21.10
2009,06,30,16,38,21.10
2009,06,30,16,39,21.10
2009,06,30,16,40,21.10
2009,06,30,16,41,21.10
2009,06,30,16,42,21.10
2009,06,30,16,43,20.90
2009,06,30,16,44,20.90
2009,06,30,16,45,20.90
2009,06,30,16,46,21.00
2009,06,30,16,47,21.00
2009,06,30,16,48,21.00
2009,06,30,16,49,21.00
2009,06,30,16,50,21.00
2009,06,30,16,51,20.90
2009,06,30,16,52,21.00
2009,06,30,16,53,21.00
2009,06,30,16,54,20.90
2009,06,30,16,55,20.90
2009,06,30,16,56,20.80
2009,06,30,16,57,20.80
2009,06,30,16,58,20.90
2009,06,30,16,59,21.00
2009,06,30,17,00,21.10
2009,06,30,17,01,21.10
2009,06,30,17,02,21.10
2009,06,30,17,03,21.10
2009,06,30,17,04,21.10
2009,06,30,17,05,21.10
2009,06,30,17,06,21.00
2009,06,30,17,07,21.00
2009,06,30,17,08,21.00
2009,06,30,17,09,20.90
2009,06,30,17,10,20.90
2009,06,30,17,11,20.90
2009,06,30,17,12,20.90
2009,06,30,17,13,20.90
2009,06,30,17,14,21.00
2009,06,30,17,15,20.90
2009,06,30,17,16,20.90
2009,06,30,17,17,20.90
2009,06,30,17,18,20.90
2009,06,30,17,19,20.90
2009,06,30,17,20,20.80
2009,06,30,17,21,20.80
2009,06,30,17,22,20.70
2009,06,30,17,23,20.70
2009,06,30,17,24,20.80
2009,06,30,17,25,20.80
2009,06,30,17,26,20.80
2009,06,30,17,27,20.90
2009,06,30,17,28,20.90
2009,06,30,17,29,20.90
2009,06,30,17,30,21.00